Regional Weather Roundup
Issued by NWS Cleveland, OH

Home | Current Version | Previous Version | Graphics & Text | Print | Product List | Glossary On
Versions: 1 2 3 4 5 6 7 8 9 10 11 12 13 14 15 16 17 18 19 20 21 22 23 24 25 26 27 28 29 30 31 32 33 34 35 36 37 38 39 40 41 42 43 44 45 46 47 48 49 50
000
ASUS41 KCLE 201410
RWRCLE
OHIO REGIONAL WEATHER ROUNDUP
NATIONAL WEATHER SERVICE WILMINGTON, OH
900 AM EST FRI JAN 20 2017

NOTE: "FAIR" INDICATES FEW OR NO CLOUDS BELOW 12,000 FEET WITH NO
SIGNIFICANT WEATHER AND/OR OBSTRUCTIONS TO VISIBILITY.

OHZ001>008-015>018-024>027-034-035-043-044-201500-
   NORTHWEST OHIO

CITY           SKY/WX    TMP DP  RH WIND       PRES   REMARKS
DEFIANCE       CLOUDY    36  36 100 E7        29.61S FOG
FINDLAY        LGT RAIN  45  41  86 SE10      29.59F
TOLEDO EXPRESS LGT RAIN  36  36 100 NE10      29.62S FOG
TOLEDO EXEC    CLOUDY    36  36 100 NE8       29.63F FOG
LIMA           LGT RAIN  45  45 100 S12       29.60R
$$

OHZ009>014-019>023-028>033-038-089-201500-
   NORTHEAST OHIO

CITY           SKY/WX    TMP DP  RH WIND       PRES   REMARKS
CLE-HOPKINS    LGT RAIN  44  39  82 SE9       29.67F
CLE-LAKEFRONT  LGT RAIN  42  38  85 SE10      29.65F FOG
CUY CO. ARPT   LGT RAIN  41  39  93 SE14      29.67F FOG
LORAIN-ELYRIA  LGT RAIN  41  38  89 S9        29.65S FOG
ASHTABULA      LGT RAIN  37  36  96 SE8       29.72F FOG
AKRON-CANTON   LGT RAIN  41  38  89 SE14      29.67F FOG
WOOSTER        LGT RAIN  40  38  93 SE8       29.66S FOG
MANSFIELD      LGT RAIN  42  42 100 SE14      29.63F FOG
YOUNGSTOWN     LGT RAIN  39  36  89 E12       29.70F FOG
$$

OHZ042-051>053-060>062-070>072-077>081-201500-
  SOUTHWEST OHIO

CITY           SKY/WX    TMP DP  RH WIND       PRES   REMARKS
CINC-COVINGTON LGT RAIN  54  53  97 SW9G18    29.68R
CINC-LUNKEN    LGT RAIN  55  54  96 S10       29.70R
HAMILTON       CLOUDY    55  54  96 SW12      29.68R
DAYTON         CLOUDY    50  50 100 SW14      29.65R FOG
WRIGHT-PAT AFB CLOUDY    52  52 100 SW16      29.65R
DAYTON GENERAL CLOUDY    53  51  93 SW15      29.66R
WILMINGTON     LGT RAIN  52  52 100 SW15      29.67R
$$

OHZ036-037-039>041-045>050-054>059-063>069-073>076-082>088-201500-
  CENTRAL AND SOUTHEAST OHIO

CITY           SKY/WX    TMP DP  RH WIND       PRES   REMARKS
COLUMBUS       LGT RAIN  48  45  89 S7        29.66R FOG
OSU AIRPORT    CLOUDY    46  46 100 S9        29.64S FOG
BOLTON FIELD   CLOUDY    45  45 100 S6        29.66R FOG
RICKENBACK AFB   N/A     46  46 100 S10       29.67R
NEWARK         LGT RAIN  46  44  93 CALM      29.67R
MARION         CLOUDY    45  43  93 S12       29.63S FOG
LANCASTER      LGT RAIN  51  48  89 S9        29.68R
ZANESVILLE     LGT RAIN  47  45  93 S10       29.69R FOG
NEW PHILLY     LGT RAIN  42  41  96 SE5       29.69S FOG
$$




USA.gov is the U.S. government's official web portal to all federal, state and local government web resources and services.